Location: Poughquag
(41.6090°N, 73.6820°W)
Time: 12:46:47
(UTC-04:00)

Tiros 1 despin weight - Pass Details

Date: 29 May 2020
Orbit: 593 x 642 km, 48.2° (Epoch: 07 July)

Event Time Altitude Azimuth Distance (km) Brightness Sun altitude
Rises 12:11:26 0° 243° (WSW) 2,912 ? 68.4°
Reaches altitude 10° 12:13:45 10° 244° (WSW) 1,999 ? 68.6°
Maximum altitude 12:18:22 84° 331° (NNW) 630 ? 68.9°
Drops below altitude 10° 12:22:55 10° 61° (ENE) 1,975 ? 69.2°
Sets 12:25:13 0° 63° (ENE) 2,873 ? 69.4°
